Change the Weather History Date:

Tuesday, April 23, 2013

  Actual Average Record
Temperature  
Mean Temperature 66 °F 65 °F  
Max Temperature 79 °F 76 °F 96 °F (1905)
Min Temperature 52 °F 54 °F 38 °F (1931)
Degree Days  
Heating Degree Days 0 3  
Month to date heating degree days 155 114  
Since 1 July heating degree days 2860 2849  
Cooling Degree Days 1 3  
Month to date cooling degree days 46 43  
Year to date cooling degree days 54 63  
Growing Degree Days 16 (Base 50)    
Moisture  
Dew Point 58 °F    
Average Humidity 74    
Maximum Humidity 93    
Minimum Humidity 54    
Precipitation  
Precipitation 0.02 in 0.17 in 4.05 in (1941)
Month to date precipitation 4.71 3.78  
Year to date precipitation 19.84 17.00  
Snow  
Snow 0.00 in 0.00 in - ()
Month to date snowfall 0.0 0.0  
Since 1 July snowfall 2.1 3.1  
Snow Depth 0.00 in    
Sea Level Pressure  
Sea Level Pressure 29.97 in    
Wind  
Wind Speed 8 mph (South)    
Max Wind Speed 23 mph    
Max Gust Speed 29 mph    
Visibility 10 miles    
Events Rain    
T = Trace of Precipitation, MM = Missing Value Source: NWS Daily Summary

Daily Weather History Graph

Daily Weather History Graph

Search for Another Location

Airport or City:

Trip Planner

Search our weather history database for the weather conditions in past years. The results will help you decide how hot, cold, wet, or windy it might be!

Date:

Astronomy

Apr. 23, 2013 Rise Set
Actual Time 6:26 AM CDT 7:45 PM CDT
Civil Twilight 6:00 AM CDT 8:12 PM CDT
Nautical Twilight 5:29 AM CDT 8:43 PM CDT
Astronomical Twilight 4:56 AM CDT 9:16 PM CDT
Moon 5:45 PM CDT (4/23) 4:48 AM CDT (4/23)
Length of Visible Light 14h 11m
Length of Day
13h 19m
Waxing Gibbous, 94% of the Moon is Illuminated
Apr 23
Waxing Gibbous
Apr 25
Full
May 2
Last Quarter
May 9
New
May 17
First Quarter

Hourly Weather History & Observations

Time (CDT) Temp. Dew Point Humidity Pressure Visibility Wind Dir Wind Speed Gust Speed Precip Events Conditions
12:53 AM 53.1 °F 51.1 °F 93% 29.99 in 10.0 mi SE 4.6 mph - N/A   Clear
1:53 AM 55.9 °F 50.0 °F 80% 29.98 in 10.0 mi Calm Calm - N/A   Clear
2:53 AM 54.0 °F 48.9 °F 83% 29.97 in 10.0 mi ENE 3.5 mph - N/A   Clear
3:53 AM 54.0 °F 50.0 °F 86% 29.98 in 10.0 mi Calm Calm - N/A   Clear
4:53 AM 53.6 °F 50.0 °F 88% 29.99 in 10.0 mi Calm Calm - N/A   Clear
5:53 AM 54.0 °F 50.0 °F 86% 29.98 in 10.0 mi Calm Calm - N/A   Clear
6:53 AM 55.0 °F 53.1 °F 93% 29.99 in 10.0 mi SSE 6.9 mph - N/A   Partly Cloudy
7:30 AM 57.2 °F 55.4 °F 94% 30.01 in 10.0 mi South 8.1 mph - N/A   Mostly Cloudy
7:53 AM 59.0 °F 55.9 °F 90% 30.01 in 10.0 mi SSE 8.1 mph - N/A   Mostly Cloudy
8:03 AM 59.0 °F 57.2 °F 94% 30.01 in 10.0 mi SSE 9.2 mph - N/A   Overcast
8:53 AM 62.1 °F 59.0 °F 90% 30.02 in 8.0 mi SSE 8.1 mph - N/A   Overcast
9:29 AM 64.4 °F 60.8 °F 88% 30.02 in 10.0 mi SE 4.6 mph - N/A   Overcast
9:53 AM 66.9 °F 62.1 °F 84% 30.02 in 10.0 mi South 8.1 mph - N/A   Overcast
10:00 AM 66.2 °F 60.8 °F 83% 30.03 in 10.0 mi South 10.4 mph - N/A   Overcast
10:24 AM 68.0 °F 60.8 °F 78% 30.02 in 10.0 mi South 11.5 mph - N/A   Overcast
10:53 AM 69.1 °F 62.1 °F 78% 30.01 in 10.0 mi South 12.7 mph - N/A   Overcast
11:01 AM 71.6 °F 62.6 °F 73% 30.01 in 10.0 mi South 13.8 mph 20.7 mph N/A   Overcast
11:37 AM 71.6 °F 60.8 °F 69% 30.00 in 10.0 mi South 21.9 mph 26.5 mph N/A   Mostly Cloudy
11:53 AM 73.9 °F 61.0 °F 64% 29.99 in 10.0 mi South 16.1 mph 24.2 mph N/A   Mostly Cloudy
12:53 PM 73.0 °F 59.0 °F 61% 29.98 in 10.0 mi SSW 19.6 mph 26.5 mph N/A   Overcast
1:53 PM 73.9 °F 59.0 °F 59% 29.96 in 10.0 mi SW 13.8 mph 21.9 mph N/A   Mostly Cloudy
2:53 PM 77.0 °F 59.0 °F 54% 29.94 in 10.0 mi SSW 13.8 mph 25.3 mph N/A   Mostly Cloudy
3:53 PM 78.1 °F 60.1 °F 54% 29.92 in 10.0 mi SW 12.7 mph - N/A   Mostly Cloudy
4:53 PM 75.9 °F 60.1 °F 58% 29.89 in 10.0 mi SSW 11.5 mph - N/A   Mostly Cloudy
5:53 PM 75.9 °F 60.1 °F 58% 29.88 in 10.0 mi SSW 8.1 mph - N/A   Scattered Clouds
6:53 PM 75.0 °F 61.0 °F 62% 29.89 in 10.0 mi SSW 5.8 mph - N/A   Mostly Cloudy
7:53 PM 73.0 °F 61.0 °F 66% 29.90 in 10.0 mi SSW 5.8 mph - N/A   Overcast
8:53 PM 71.1 °F 62.1 °F 73% 29.92 in 10.0 mi South 5.8 mph - N/A   Overcast
9:53 PM 69.1 °F 63.0 °F 81% 29.93 in 10.0 mi South 4.6 mph - 0.00 in   Overcast
10:53 PM 68.0 °F 63.0 °F 84% 29.93 in 7.0 mi Variable 3.5 mph - 0.02 in Rain Light Rain
11:53 PM 62.1 °F 55.9 °F 80% 29.94 in 10.0 mi NNW 16.1 mph - 0.00 in   Overcast